Year,Month,Day,Hour,Minute,Value (Times are PST for temperature in C)
2009,07,21,00,00,15.30
2009,07,21,00,01,15.30
2009,07,21,00,02,15.30
2009,07,21,00,03,15.30
2009,07,21,00,04,15.30
2009,07,21,00,05,15.30
2009,07,21,00,06,15.30
2009,07,21,00,07,15.20
2009,07,21,00,08,15.20
2009,07,21,00,09,15.20
2009,07,21,00,10,15.20
2009,07,21,00,11,15.20
2009,07,21,00,12,15.20
2009,07,21,00,13,15.10
2009,07,21,00,14,15.10
2009,07,21,00,15,15.10
2009,07,21,00,16,15.10
2009,07,21,00,17,15.10
2009,07,21,00,18,15.10
2009,07,21,00,19,15.00
2009,07,21,00,20,15.00
2009,07,21,00,21,15.00
2009,07,21,00,22,15.00
2009,07,21,00,23,15.00
2009,07,21,00,24,14.90
2009,07,21,00,25,14.90
2009,07,21,00,26,14.90
2009,07,21,00,27,14.90
2009,07,21,00,28,14.90
2009,07,21,00,29,14.80
2009,07,21,00,30,14.80
2009,07,21,00,31,14.80
2009,07,21,00,32,14.80
2009,07,21,00,33,14.80
2009,07,21,00,34,14.80
2009,07,21,00,35,14.80
2009,07,21,00,36,14.80
2009,07,21,00,37,14.80
2009,07,21,00,38,14.80
2009,07,21,00,39,14.80
2009,07,21,00,40,14.80
2009,07,21,00,41,14.80
2009,07,21,00,42,14.80
2009,07,21,00,43,14.80
2009,07,21,00,44,14.80
2009,07,21,00,45,14.70
2009,07,21,00,46,14.70
2009,07,21,00,47,14.70
2009,07,21,00,48,14.70
2009,07,21,00,49,14.60
2009,07,21,00,50,14.60
2009,07,21,00,51,14.60
2009,07,21,00,52,14.60
2009,07,21,00,53,14.60
2009,07,21,00,54,14.50
2009,07,21,00,55,14.50
2009,07,21,00,56,14.50
2009,07,21,00,57,14.50
2009,07,21,00,58,14.40
2009,07,21,00,59,14.40
2009,07,21,01,00,14.40
2009,07,21,01,01,14.40
2009,07,21,01,02,14.30
2009,07,21,01,03,14.30
2009,07,21,01,04,14.30
2009,07,21,01,05,14.30
2009,07,21,01,06,14.20
2009,07,21,01,07,14.20
2009,07,21,01,08,14.20
2009,07,21,01,09,14.20
2009,07,21,01,10,14.20
2009,07,21,01,11,14.20
2009,07,21,01,12,14.20
2009,07,21,01,13,14.10
2009,07,21,01,14,14.10
2009,07,21,01,15,14.10
2009,07,21,01,16,14.10
2009,07,21,01,17,14.00
2009,07,21,01,18,14.00
2009,07,21,01,19,14.00
2009,07,21,01,20,13.90
2009,07,21,01,21,13.90
2009,07,21,01,22,13.90
2009,07,21,01,23,13.90
2009,07,21,01,24,13.90
2009,07,21,01,25,13.90
2009,07,21,01,26,13.80
2009,07,21,01,27,13.80
2009,07,21,01,28,13.80
2009,07,21,01,29,13.80
2009,07,21,01,30,13.70
2009,07,21,01,31,13.70
2009,07,21,01,32,13.70
2009,07,21,01,33,13.70
2009,07,21,01,34,13.70
2009,07,21,01,35,13.70
2009,07,21,01,36,13.70
2009,07,21,01,37,13.70
2009,07,21,01,38,13.70
2009,07,21,01,39,13.70
2009,07,21,01,40,13.70
2009,07,21,01,41,13.60
2009,07,21,01,42,13.60
2009,07,21,01,43,13.60
2009,07,21,01,44,13.60
2009,07,21,01,45,13.60
2009,07,21,01,46,13.60
2009,07,21,01,47,13.60
2009,07,21,01,48,13.50
2009,07,21,01,49,13.50
2009,07,21,01,50,13.50
2009,07,21,01,51,13.50
2009,07,21,01,52,13.50
2009,07,21,01,53,13.50
2009,07,21,01,54,13.50
2009,07,21,01,55,13.40
2009,07,21,01,56,13.40
2009,07,21,01,57,13.40
2009,07,21,01,58,13.40
2009,07,21,01,59,13.40
2009,07,21,02,00,13.40
2009,07,21,02,01,13.40
2009,07,21,02,02,13.30
2009,07,21,02,03,13.30
2009,07,21,02,04,13.30
2009,07,21,02,05,13.30
2009,07,21,02,06,13.30
2009,07,21,02,07,13.30
2009,07,21,02,08,13.30
2009,07,21,02,09,13.30
2009,07,21,02,10,13.30
2009,07,21,02,11,13.30
2009,07,21,02,12,13.30
2009,07,21,02,13,13.30
2009,07,21,02,14,13.30
2009,07,21,02,15,13.30
2009,07,21,02,16,13.30
2009,07,21,02,17,13.30
2009,07,21,02,18,13.30
2009,07,21,02,19,13.30
2009,07,21,02,20,13.30
2009,07,21,02,21,13.30
2009,07,21,02,22,13.30
2009,07,21,02,23,13.30
2009,07,21,02,24,13.30
2009,07,21,02,25,13.20
2009,07,21,02,26,13.20
2009,07,21,02,27,13.20
2009,07,21,02,28,13.20
2009,07,21,02,29,13.10
2009,07,21,02,30,13.10
2009,07,21,02,31,13.10
2009,07,21,02,32,13.10
2009,07,21,02,33,13.10
2009,07,21,02,34,13.00
2009,07,21,02,35,13.00
2009,07,21,02,36,13.00
2009,07,21,02,37,13.00
2009,07,21,02,38,13.00
2009,07,21,02,39,13.00
2009,07,21,02,40,12.90
2009,07,21,02,41,12.90
2009,07,21,02,42,12.90
2009,07,21,02,43,12.90
2009,07,21,02,44,12.90
2009,07,21,02,45,12.90
2009,07,21,02,46,12.90
2009,07,21,02,47,12.80
2009,07,21,02,48,12.80
2009,07,21,02,49,12.80
2009,07,21,02,50,12.80
2009,07,21,02,51,12.80
2009,07,21,02,52,12.80
2009,07,21,02,53,12.80
2009,07,21,02,54,12.80
2009,07,21,02,55,12.80
2009,07,21,02,56,12.70
2009,07,21,02,57,12.70
2009,07,21,02,58,12.70
2009,07,21,02,59,12.70
2009,07,21,03,00,12.70
2009,07,21,03,01,12.60
2009,07,21,03,02,12.60
2009,07,21,03,03,12.60
2009,07,21,03,04,12.60
2009,07,21,03,05,12.60
2009,07,21,03,06,12.50
2009,07,21,03,07,12.50
2009,07,21,03,08,12.50
2009,07,21,03,09,12.50
2009,07,21,03,10,12.50
2009,07,21,03,11,12.50
2009,07,21,03,12,12.50
2009,07,21,03,13,12.50
2009,07,21,03,14,12.50
2009,07,21,03,15,12.50
2009,07,21,03,16,12.50
2009,07,21,03,17,12.60
2009,07,21,03,18,12.60
2009,07,21,03,19,12.60
2009,07,21,03,20,12.60
2009,07,21,03,21,12.60
2009,07,21,03,22,12.60
2009,07,21,03,23,12.60
2009,07,21,03,24,12.60
2009,07,21,03,25,12.60
2009,07,21,03,26,12.60
2009,07,21,03,27,12.60
2009,07,21,03,28,12.60
2009,07,21,03,29,12.50
2009,07,21,03,30,12.50
2009,07,21,03,31,12.50
2009,07,21,03,32,12.50
2009,07,21,03,33,12.50
2009,07,21,03,34,12.50
2009,07,21,03,35,12.40
2009,07,21,03,36,12.40
2009,07,21,03,37,12.40
2009,07,21,03,38,12.40
2009,07,21,03,39,12.40
2009,07,21,03,40,12.40
2009,07,21,03,41,12.30
2009,07,21,03,42,12.30
2009,07,21,03,43,12.30
2009,07,21,03,44,12.30
2009,07,21,03,45,12.30
2009,07,21,03,46,12.30
2009,07,21,03,47,12.30
2009,07,21,03,48,12.30
2009,07,21,03,49,12.30
2009,07,21,03,50,12.30
2009,07,21,03,51,12.30
2009,07,21,03,52,12.30
2009,07,21,03,53,12.20
2009,07,21,03,54,12.20
2009,07,21,03,55,12.20
2009,07,21,03,56,12.20
2009,07,21,03,57,12.20
2009,07,21,03,58,12.20
2009,07,21,03,59,12.10
2009,07,21,04,00,12.10
2009,07,21,04,01,12.10
2009,07,21,04,02,12.10
2009,07,21,04,03,12.10
2009,07,21,04,04,12.00
2009,07,21,04,05,12.00
2009,07,21,04,06,12.00
2009,07,21,04,07,12.00
2009,07,21,04,08,12.00
2009,07,21,04,09,12.00
2009,07,21,04,10,12.00
2009,07,21,04,11,12.00
2009,07,21,04,12,12.00
2009,07,21,04,13,12.00
2009,07,21,04,14,12.00
2009,07,21,04,15,12.00
2009,07,21,04,16,12.00
2009,07,21,04,17,11.90
2009,07,21,04,18,11.90
2009,07,21,04,19,11.90
2009,07,21,04,20,11.90
2009,07,21,04,21,11.90
2009,07,21,04,22,11.90
2009,07,21,04,23,11.90
2009,07,21,04,24,11.90
2009,07,21,04,25,11.80
2009,07,21,04,26,11.80
2009,07,21,04,27,11.80
2009,07,21,04,28,11.80
2009,07,21,04,29,11.80
2009,07,21,04,30,11.80
2009,07,21,04,31,11.80
2009,07,21,04,32,11.80
2009,07,21,04,33,11.80
2009,07,21,04,34,11.80
2009,07,21,04,35,11.80
2009,07,21,04,36,11.80
2009,07,21,04,37,11.80
2009,07,21,04,38,11.80
2009,07,21,04,39,11.80
2009,07,21,04,40,11.80
2009,07,21,04,41,11.80
2009,07,21,04,42,11.80
2009,07,21,04,43,11.80
2009,07,21,04,44,11.80
2009,07,21,04,45,11.80
2009,07,21,04,46,11.80
2009,07,21,04,47,11.80
2009,07,21,04,48,11.80
2009,07,21,04,49,11.80
2009,07,21,04,50,11.80
2009,07,21,04,51,11.80
2009,07,21,04,52,11.80
2009,07,21,04,53,11.80
2009,07,21,04,54,11.80
2009,07,21,04,55,11.80
2009,07,21,04,56,11.70
2009,07,21,04,57,11.70
2009,07,21,04,58,11.70
2009,07,21,04,59,11.70
2009,07,21,05,00,11.70
2009,07,21,05,01,11.70
2009,07,21,05,02,11.70
2009,07,21,05,03,11.70
2009,07,21,05,04,11.70
2009,07,21,05,05,11.70
2009,07,21,05,06,11.70
2009,07,21,05,07,11.70
2009,07,21,05,08,11.70
2009,07,21,05,09,11.80
2009,07,21,05,10,11.80
2009,07,21,05,11,11.80
2009,07,21,05,12,11.80
2009,07,21,05,13,11.80
2009,07,21,05,14,11.70
2009,07,21,05,15,11.70
2009,07,21,05,16,11.70
2009,07,21,05,17,11.70
2009,07,21,05,18,11.70
2009,07,21,05,19,11.70
2009,07,21,05,20,11.70
2009,07,21,05,21,11.70
2009,07,21,05,22,11.60
2009,07,21,05,23,11.60
2009,07,21,05,24,11.60
2009,07,21,05,25,11.60
2009,07,21,05,26,11.60
2009,07,21,05,27,11.60
2009,07,21,05,28,11.60
2009,07,21,05,29,11.60
2009,07,21,05,30,11.60
2009,07,21,05,31,11.60
2009,07,21,05,32,11.60
2009,07,21,05,33,11.60
2009,07,21,05,34,11.60
2009,07,21,05,35,11.60
2009,07,21,05,36,11.60
2009,07,21,05,37,11.60
2009,07,21,05,38,11.60
2009,07,21,05,39,11.60
2009,07,21,05,40,11.60
2009,07,21,05,41,11.60
2009,07,21,05,42,11.60
2009,07,21,05,43,11.60
2009,07,21,05,44,11.60
2009,07,21,05,45,11.60
2009,07,21,05,46,11.60
2009,07,21,05,47,11.60
2009,07,21,05,48,11.60
2009,07,21,05,49,11.60
2009,07,21,05,50,11.60
2009,07,21,05,51,11.60
2009,07,21,05,52,11.60
2009,07,21,05,53,11.60
2009,07,21,05,54,11.60
2009,07,21,05,55,11.60
2009,07,21,05,56,11.60
2009,07,21,05,57,11.60
2009,07,21,05,58,11.60
2009,07,21,05,59,11.60
2009,07,21,06,00,11.60
2009,07,21,06,01,11.60
2009,07,21,06,02,11.60
2009,07,21,06,03,11.60
2009,07,21,06,04,11.60
2009,07,21,06,05,11.60
2009,07,21,06,06,11.60
2009,07,21,06,07,11.60
2009,07,21,06,08,11.60
2009,07,21,06,09,11.60
2009,07,21,06,10,11.60
2009,07,21,06,11,11.60
2009,07,21,06,12,11.60
2009,07,21,06,13,11.60
2009,07,21,06,14,11.60
2009,07,21,06,15,11.60
2009,07,21,06,16,11.60
2009,07,21,06,17,11.60
2009,07,21,06,18,11.70
2009,07,21,06,19,11.70
2009,07,21,06,20,11.70
2009,07,21,06,21,11.70
2009,07,21,06,22,11.70
2009,07,21,06,23,11.70
2009,07,21,06,24,11.70
2009,07,21,06,25,11.80
2009,07,21,06,26,11.80
2009,07,21,06,27,11.80
2009,07,21,06,28,11.80
2009,07,21,06,29,11.80
2009,07,21,06,30,11.80
2009,07,21,06,31,11.80
2009,07,21,06,32,11.80
2009,07,21,06,33,11.80
2009,07,21,06,34,11.80
2009,07,21,06,35,11.80
2009,07,21,06,36,11.90
2009,07,21,06,37,11.90
2009,07,21,06,38,11.90
2009,07,21,06,39,12.00
2009,07,21,06,40,12.00
2009,07,21,06,41,12.10
2009,07,21,06,42,12.10
2009,07,21,06,43,12.20
2009,07,21,06,44,12.30
2009,07,21,06,45,12.40
2009,07,21,06,46,12.50
2009,07,21,06,47,12.60
2009,07,21,06,48,12.60
2009,07,21,06,49,12.80
2009,07,21,06,50,12.80
2009,07,21,06,51,12.90
2009,07,21,06,52,13.00
2009,07,21,06,53,13.10
2009,07,21,06,54,13.20
2009,07,21,06,55,13.30
2009,07,21,06,56,13.40
2009,07,21,06,57,13.50
2009,07,21,06,58,13.60
2009,07,21,06,59,13.60
2009,07,21,07,00,13.70
2009,07,21,07,01,13.80
2009,07,21,07,02,13.90
2009,07,21,07,03,14.00
2009,07,21,07,04,14.20
2009,07,21,07,05,14.20
2009,07,21,07,06,14.30
2009,07,21,07,07,14.50
2009,07,21,07,08,14.60
2009,07,21,07,09,14.70
2009,07,21,07,10,14.70
2009,07,21,07,11,14.80
2009,07,21,07,12,14.80
2009,07,21,07,13,14.90
2009,07,21,07,14,14.90
2009,07,21,07,15,15.00
2009,07,21,07,16,15.10
2009,07,21,07,17,15.10
2009,07,21,07,18,15.20
2009,07,21,07,19,15.30
2009,07,21,07,20,15.30
2009,07,21,07,21,15.40
2009,07,21,07,22,15.50
2009,07,21,07,23,15.50
2009,07,21,07,24,15.60
2009,07,21,07,25,15.70
2009,07,21,07,26,15.70
2009,07,21,07,27,15.80
2009,07,21,07,28,15.80
2009,07,21,07,29,15.90
2009,07,21,07,30,15.90
2009,07,21,07,31,16.00
2009,07,21,07,32,16.10
2009,07,21,07,33,16.10
2009,07,21,07,34,16.20
2009,07,21,07,35,16.30
2009,07,21,07,36,16.30
2009,07,21,07,37,16.40
2009,07,21,07,38,16.50
2009,07,21,07,39,16.60
2009,07,21,07,40,16.70
2009,07,21,07,41,16.70
2009,07,21,07,42,16.70
2009,07,21,07,43,16.80
2009,07,21,07,44,16.90
2009,07,21,07,45,17.00
2009,07,21,07,46,17.00
2009,07,21,07,47,17.10
2009,07,21,07,48,17.20
2009,07,21,07,49,17.20
2009,07,21,07,50,17.30
2009,07,21,07,51,17.40
2009,07,21,07,52,17.40
2009,07,21,07,53,17.50
2009,07,21,07,54,17.60
2009,07,21,07,55,17.70
2009,07,21,07,56,17.80
2009,07,21,07,57,17.80
2009,07,21,07,58,17.90
2009,07,21,07,59,17.90
2009,07,21,08,00,17.90
2009,07,21,08,01,18.10
2009,07,21,08,02,18.10
2009,07,21,08,03,18.20
2009,07,21,08,04,18.20
2009,07,21,08,05,18.40
2009,07,21,08,06,18.50
2009,07,21,08,07,18.50
2009,07,21,08,08,18.60
2009,07,21,08,09,18.70
2009,07,21,08,10,18.90
2009,07,21,08,11,19.00
2009,07,21,08,12,19.10
2009,07,21,08,13,19.20
2009,07,21,08,14,19.30
2009,07,21,08,15,19.40
2009,07,21,08,16,19.50
2009,07,21,08,17,19.60
2009,07,21,08,18,19.80
2009,07,21,08,19,19.90
2009,07,21,08,20,20.10
2009,07,21,08,21,20.30
2009,07,21,08,22,20.40
2009,07,21,08,23,20.50
2009,07,21,08,24,20.60
2009,07,21,08,25,20.80
2009,07,21,08,26,20.90
2009,07,21,08,27,20.90
2009,07,21,08,28,21.00
2009,07,21,08,29,21.10
2009,07,21,08,30,21.20
2009,07,21,08,31,21.20
2009,07,21,08,32,21.30
2009,07,21,08,33,21.30
2009,07,21,08,34,21.50
2009,07,21,08,35,21.60
2009,07,21,08,36,21.60
2009,07,21,08,37,21.70
2009,07,21,08,38,21.80
2009,07,21,08,39,22.00
2009,07,21,08,40,22.00
2009,07,21,08,41,22.10
2009,07,21,08,42,22.20
2009,07,21,08,43,22.20
2009,07,21,08,44,22.20
2009,07,21,08,45,22.30
2009,07,21,08,46,22.30
2009,07,21,08,47,22.30
2009,07,21,08,48,22.30
2009,07,21,08,49,22.30
2009,07,21,08,50,22.30
2009,07,21,08,51,22.30
2009,07,21,08,52,22.20
2009,07,21,08,53,22.20
2009,07,21,08,54,22.20
2009,07,21,08,55,22.10
2009,07,21,08,56,22.10
2009,07,21,08,57,22.10
2009,07,21,08,58,22.10
2009,07,21,08,59,22.10
2009,07,21,09,00,22.10
2009,07,21,09,01,22.20
2009,07,21,09,02,22.30
2009,07,21,09,03,22.30
2009,07,21,09,04,22.40
2009,07,21,09,05,22.40
2009,07,21,09,06,22.60
2009,07,21,09,07,22.60
2009,07,21,09,08,22.70
2009,07,21,09,09,22.70
2009,07,21,09,10,22.80
2009,07,21,09,11,22.90
2009,07,21,09,12,23.00
2009,07,21,09,13,23.20
2009,07,21,09,14,23.20
2009,07,21,09,15,23.30
2009,07,21,09,16,23.30
2009,07,21,09,17,23.30
2009,07,21,09,18,23.30
2009,07,21,09,19,23.30
2009,07,21,09,20,23.30
2009,07,21,09,21,23.30
2009,07,21,09,22,23.30
2009,07,21,09,23,23.30
2009,07,21,09,24,23.40
2009,07,21,09,25,23.60
2009,07,21,09,26,23.70
2009,07,21,09,27,23.70
2009,07,21,09,28,23.70
2009,07,21,09,29,23.70
2009,07,21,09,30,23.70
2009,07,21,09,31,23.50
2009,07,21,09,32,23.40
2009,07,21,09,33,23.30
2009,07,21,09,34,23.30
2009,07,21,09,35,23.30
2009,07,21,09,36,23.30
2009,07,21,09,37,23.40
2009,07,21,09,38,23.50
2009,07,21,09,39,23.70
2009,07,21,09,40,23.70
2009,07,21,09,41,23.80
2009,07,21,09,42,24.00
2009,07,21,09,43,24.10
2009,07,21,09,44,24.20
2009,07,21,09,45,24.30
2009,07,21,09,46,24.40
2009,07,21,09,47,24.50
2009,07,21,09,48,24.40
2009,07,21,09,49,24.40
2009,07,21,09,50,24.40
2009,07,21,09,51,24.40
2009,07,21,09,52,24.40
2009,07,21,09,53,24.40
2009,07,21,09,54,24.40
2009,07,21,09,55,24.40
2009,07,21,09,56,24.40
2009,07,21,09,57,24.40
2009,07,21,09,58,24.40
2009,07,21,09,59,24.40
2009,07,21,10,00,24.40
2009,07,21,10,01,24.40
2009,07,21,10,02,24.40
2009,07,21,10,03,24.40
2009,07,21,10,04,24.40
2009,07,21,10,05,24.40
2009,07,21,10,06,24.50
2009,07,21,10,07,24.60
2009,07,21,10,08,24.70
2009,07,21,10,09,24.90
2009,07,21,10,10,24.90
2009,07,21,10,11,25.00
2009,07,21,10,12,25.10
2009,07,21,10,13,25.10
2009,07,21,10,14,25.10
2009,07,21,10,15,25.00
2009,07,21,10,16,25.00
2009,07,21,10,17,25.00
2009,07,21,10,18,24.90
2009,07,21,10,19,24.80
2009,07,21,10,20,24.70
2009,07,21,10,21,24.60
2009,07,21,10,22,24.50
2009,07,21,10,23,24.40
2009,07,21,10,24,24.30
2009,07,21,10,25,24.30
2009,07,21,10,26,24.30
2009,07,21,10,27,24.40
2009,07,21,10,28,24.40
2009,07,21,10,29,24.50
2009,07,21,10,30,24.60
2009,07,21,10,31,24.80
2009,07,21,10,32,24.80
2009,07,21,10,33,24.80
2009,07,21,10,34,24.80
2009,07,21,10,35,24.90
2009,07,21,10,36,25.00
2009,07,21,10,37,25.10
2009,07,21,10,38,25.30
2009,07,21,10,39,25.20
2009,07,21,10,40,25.00
2009,07,21,10,41,24.90
2009,07,21,10,42,24.80
2009,07,21,10,43,24.70
2009,07,21,10,44,24.70
2009,07,21,10,45,24.70
2009,07,21,10,46,24.70
2009,07,21,10,47,24.70
2009,07,21,10,48,24.70
2009,07,21,10,49,24.60
2009,07,21,10,50,24.60
2009,07,21,10,51,24.60
2009,07,21,10,52,24.50
2009,07,21,10,53,24.50
2009,07,21,10,54,24.30
2009,07,21,10,55,24.40
2009,07,21,10,56,24.40
2009,07,21,10,57,24.40
2009,07,21,10,58,24.40
2009,07,21,10,59,24.50
2009,07,21,11,00,24.70
2009,07,21,11,01,24.80
2009,07,21,11,02,24.80
2009,07,21,11,03,24.90
2009,07,21,11,04,24.90
2009,07,21,11,05,24.90
2009,07,21,11,06,24.90
2009,07,21,11,07,24.90
2009,07,21,11,08,24.90
2009,07,21,11,09,24.90
2009,07,21,11,10,24.90
2009,07,21,11,11,24.90
2009,07,21,11,12,25.00
2009,07,21,11,13,25.00
2009,07,21,11,14,25.00
2009,07,21,11,15,25.10
2009,07,21,11,16,25.20
2009,07,21,11,17,25.20
2009,07,21,11,18,25.30
2009,07,21,11,19,25.40
2009,07,21,11,20,25.40
2009,07,21,11,21,25.40
2009,07,21,11,22,25.40
2009,07,21,11,23,25.30
2009,07,21,11,24,25.40
2009,07,21,11,25,25.30
2009,07,21,11,26,25.40
2009,07,21,11,27,25.40
2009,07,21,11,28,25.40
2009,07,21,11,29,25.40
2009,07,21,11,30,25.40
2009,07,21,11,31,25.40
2009,07,21,11,32,25.50
2009,07,21,11,33,25.50
2009,07,21,11,34,25.40
2009,07,21,11,35,25.40
2009,07,21,11,36,25.30
2009,07,21,11,37,25.40
2009,07,21,11,38,25.50
2009,07,21,11,39,25.60
2009,07,21,11,40,25.60
2009,07,21,11,41,25.60
2009,07,21,11,42,25.60
2009,07,21,11,43,25.60
2009,07,21,11,44,25.60
2009,07,21,11,45,25.50
2009,07,21,11,46,25.50
2009,07,21,11,47,25.50
2009,07,21,11,48,25.50
2009,07,21,11,49,25.40
2009,07,21,11,50,25.40
2009,07,21,11,51,25.50
2009,07,21,11,52,25.50
2009,07,21,11,53,25.60
2009,07,21,11,54,25.60
2009,07,21,11,55,25.50
2009,07,21,11,56,25.60
2009,07,21,11,57,25.60
2009,07,21,11,58,25.60
2009,07,21,11,59,25.50
2009,07,21,12,00,25.40
2009,07,21,12,01,25.40
2009,07,21,12,02,25.40
2009,07,21,12,03,25.40
2009,07,21,12,04,25.50
2009,07,21,12,05,25.50
2009,07,21,12,06,25.60
2009,07,21,12,07,25.50
2009,07,21,12,08,25.40
2009,07,21,12,09,25.50
2009,07,21,12,10,25.50
2009,07,21,12,11,25.40
2009,07,21,12,12,25.30
2009,07,21,12,13,25.40
2009,07,21,12,14,25.40
2009,07,21,12,15,25.30
2009,07,21,12,16,25.30
2009,07,21,12,17,25.30
2009,07,21,12,18,25.20
2009,07,21,12,19,25.20
2009,07,21,12,20,25.10
2009,07,21,12,21,25.10
2009,07,21,12,22,25.20
2009,07,21,12,23,25.30
2009,07,21,12,24,25.40
2009,07,21,12,25,25.50
2009,07,21,12,26,25.60
2009,07,21,12,27,25.70
2009,07,21,12,28,25.80
2009,07,21,12,29,25.90
2009,07,21,12,30,25.90
2009,07,21,12,31,25.90
2009,07,21,12,32,25.90
2009,07,21,12,33,26.00
2009,07,21,12,34,26.10
2009,07,21,12,35,26.10
2009,07,21,12,36,26.20
2009,07,21,12,37,26.20
2009,07,21,12,38,26.20
2009,07,21,12,39,26.20
2009,07,21,12,40,26.20
2009,07,21,12,41,26.10
2009,07,21,12,42,26.10
2009,07,21,12,43,26.10
2009,07,21,12,44,26.10
2009,07,21,12,45,26.10
2009,07,21,12,46,26.10
2009,07,21,12,47,26.20
2009,07,21,12,48,26.30
2009,07,21,12,49,26.40
2009,07,21,12,50,26.50
2009,07,21,12,51,26.60
2009,07,21,12,52,26.70
2009,07,21,12,53,26.70
2009,07,21,12,54,26.80
2009,07,21,12,55,26.70
2009,07,21,12,56,26.70
2009,07,21,12,57,26.70
2009,07,21,12,58,26.60
2009,07,21,12,59,26.60
2009,07,21,13,00,26.60
2009,07,21,13,01,26.50
2009,07,21,13,02,26.30
2009,07,21,13,03,26.10
2009,07,21,13,04,26.00
2009,07,21,13,05,26.10
2009,07,21,13,06,26.20
2009,07,21,13,07,26.30
2009,07,21,13,08,26.40
2009,07,21,13,09,26.50
2009,07,21,13,10,26.40
2009,07,21,13,11,26.40
2009,07,21,13,12,26.40
2009,07,21,13,13,26.40
2009,07,21,13,14,26.40
2009,07,21,13,15,26.40
2009,07,21,13,16,26.50
2009,07,21,13,17,26.50
2009,07,21,13,18,26.40
2009,07,21,13,19,26.40
2009,07,21,13,20,26.40
2009,07,21,13,21,26.40
2009,07,21,13,22,26.40
2009,07,21,13,23,26.40
2009,07,21,13,24,26.30
2009,07,21,13,25,26.30
2009,07,21,13,26,26.30
2009,07,21,13,27,26.30
2009,07,21,13,28,26.20
2009,07,21,13,29,26.30
2009,07,21,13,30,26.40
2009,07,21,13,31,26.50
2009,07,21,13,32,26.60
2009,07,21,13,33,26.60
2009,07,21,13,34,26.60
2009,07,21,13,35,26.40
2009,07,21,13,36,26.30
2009,07,21,13,37,26.30
2009,07,21,13,38,26.30
2009,07,21,13,39,26.30
2009,07,21,13,40,26.30
2009,07,21,13,41,26.40
2009,07,21,13,42,26.30
2009,07,21,13,43,26.30
2009,07,21,13,44,26.30
2009,07,21,13,45,26.30
2009,07,21,13,46,26.20
2009,07,21,13,47,26.20
2009,07,21,13,48,26.00
2009,07,21,13,49,26.00
2009,07,21,13,50,26.00
2009,07,21,13,51,26.10
2009,07,21,13,52,26.20
2009,07,21,13,53,26.30
2009,07,21,13,54,26.40
2009,07,21,13,55,26.50
2009,07,21,13,56,26.60
2009,07,21,13,57,26.60
2009,07,21,13,58,26.60
2009,07,21,13,59,26.60
2009,07,21,14,00,26.70
2009,07,21,14,01,26.80
2009,07,21,14,02,26.80
2009,07,21,14,03,26.80
2009,07,21,14,04,26.80
2009,07,21,14,05,26.80
2009,07,21,14,06,26.80
2009,07,21,14,07,26.70
2009,07,21,14,08,26.70
2009,07,21,14,09,26.70
2009,07,21,14,10,26.70
2009,07,21,14,11,26.70
2009,07,21,14,12,26.70
2009,07,21,14,13,26.60
2009,07,21,14,14,26.50
2009,07,21,14,15,26.40
2009,07,21,14,16,26.30
2009,07,21,14,17,26.30
2009,07,21,14,18,26.30
2009,07,21,14,19,26.30
2009,07,21,14,20,26.30
2009,07,21,14,21,26.40
2009,07,21,14,22,26.50
2009,07,21,14,23,26.60
2009,07,21,14,24,26.60
2009,07,21,14,25,26.70
2009,07,21,14,26,26.80
2009,07,21,14,27,26.70
2009,07,21,14,28,26.60
2009,07,21,14,29,26.60
2009,07,21,14,30,26.60
2009,07,21,14,31,26.60
2009,07,21,14,32,26.60
2009,07,21,14,33,26.60
2009,07,21,14,34,26.60
2009,07,21,14,35,26.60
2009,07,21,14,36,26.60
2009,07,21,14,37,26.60
2009,07,21,14,38,26.70
2009,07,21,14,39,26.70
2009,07,21,14,40,26.60
2009,07,21,14,41,26.70
2009,07,21,14,42,26.70
2009,07,21,14,43,26.80
2009,07,21,14,44,26.80
2009,07,21,14,45,27.00
2009,07,21,14,46,27.10
2009,07,21,14,47,27.30
2009,07,21,14,48,27.30
2009,07,21,14,49,27.30
2009,07,21,14,50,27.30
2009,07,21,14,51,27.30
2009,07,21,14,52,27.30
2009,07,21,14,53,27.30
2009,07,21,14,54,27.30
2009,07,21,14,55,27.30
2009,07,21,14,56,27.30
2009,07,21,14,57,27.30
2009,07,21,14,58,27.30
2009,07,21,14,59,27.30
2009,07,21,15,00,27.30
2009,07,21,15,01,27.20
2009,07,21,15,02,27.10
2009,07,21,15,03,27.10
2009,07,21,15,04,27.10
2009,07,21,15,05,27.10
2009,07,21,15,06,27.20
2009,07,21,15,07,27.20
2009,07,21,15,08,27.20
2009,07,21,15,09,27.10
2009,07,21,15,10,27.10
2009,07,21,15,11,27.10
2009,07,21,15,12,27.10
2009,07,21,15,13,26.90
2009,07,21,15,14,26.90
2009,07,21,15,15,26.90
2009,07,21,15,16,27.00
2009,07,21,15,17,27.10
2009,07,21,15,18,27.20
2009,07,21,15,19,27.20
2009,07,21,15,20,27.20
2009,07,21,15,21,27.10
2009,07,21,15,22,27.20
2009,07,21,15,23,27.10
2009,07,21,15,24,27.10
2009,07,21,15,25,27.00
2009,07,21,15,26,26.90
2009,07,21,15,27,26.70
2009,07,21,15,28,26.70
2009,07,21,15,29,26.70
2009,07,21,15,30,26.60
2009,07,21,15,31,26.60
2009,07,21,15,32,26.60
2009,07,21,15,33,26.80
2009,07,21,15,34,26.90
2009,07,21,15,35,27.00
2009,07,21,15,36,27.10
2009,07,21,15,37,27.20
2009,07,21,15,38,27.20
2009,07,21,15,39,27.30
2009,07,21,15,40,27.30
2009,07,21,15,41,27.30
2009,07,21,15,42,27.40
2009,07,21,15,43,27.50
2009,07,21,15,44,27.70
2009,07,21,15,45,27.70
2009,07,21,15,46,27.80
2009,07,21,15,47,27.90
2009,07,21,15,48,28.00
2009,07,21,15,49,28.00
2009,07,21,15,50,28.00
2009,07,21,15,51,28.00
2009,07,21,15,52,27.90
2009,07,21,15,53,27.80
2009,07,21,15,54,27.80
2009,07,21,15,55,27.80
2009,07,21,15,56,27.90
2009,07,21,15,57,28.00
2009,07,21,15,58,28.00
2009,07,21,15,59,28.10
2009,07,21,16,00,28.30
2009,07,21,16,01,28.40
2009,07,21,16,02,28.50
2009,07,21,16,03,28.60
2009,07,21,16,04,28.70
2009,07,21,16,05,28.50
2009,07,21,16,06,28.40
2009,07,21,16,07,28.30
2009,07,21,16,08,28.40
2009,07,21,16,09,28.40
2009,07,21,16,10,28.60
2009,07,21,16,11,28.50
2009,07,21,16,12,28.50
2009,07,21,16,13,28.40
2009,07,21,16,14,28.40
2009,07,21,16,15,28.50
2009,07,21,16,16,28.60
2009,07,21,16,17,28.70
2009,07,21,16,18,28.80
2009,07,21,16,19,28.90
2009,07,21,16,20,28.90
2009,07,21,16,21,29.00
2009,07,21,16,22,28.90
2009,07,21,16,23,28.90
2009,07,21,16,24,28.90
2009,07,21,16,25,28.80
2009,07,21,16,26,28.60
2009,07,21,16,27,28.60
2009,07,21,16,28,28.60
2009,07,21,16,29,28.60
2009,07,21,16,30,28.50
2009,07,21,16,31,28.40
2009,07,21,16,32,28.30
2009,07,21,16,33,28.30
2009,07,21,16,34,28.20
2009,07,21,16,35,28.30
2009,07,21,16,36,28.40
2009,07,21,16,37,28.50
2009,07,21,16,38,28.60
2009,07,21,16,39,28.70
2009,07,21,16,40,28.70
2009,07,21,16,41,28.60
2009,07,21,16,42,28.50
2009,07,21,16,43,28.50
2009,07,21,16,44,28.60
2009,07,21,16,45,28.60
2009,07,21,16,46,28.60
2009,07,21,16,47,28.70
2009,07,21,16,48,28.80
2009,07,21,16,49,28.90
2009,07,21,16,50,28.90
2009,07,21,16,51,29.00
2009,07,21,16,52,29.10
2009,07,21,16,53,29.20
2009,07,21,16,54,29.20
2009,07,21,16,55,29.20
2009,07,21,16,56,29.20
2009,07,21,16,57,29.10
2009,07,21,16,58,29.00
2009,07,21,16,59,28.90
2009,07,21,17,00,28.90
2009,07,21,17,01,28.90
2009,07,21,17,02,29.10
2009,07,21,17,03,29.10
2009,07,21,17,04,29.20
2009,07,21,17,05,29.20
2009,07,21,17,06,29.20
2009,07,21,17,07,29.20
2009,07,21,17,08,29.20
2009,07,21,17,09,29.30
2009,07,21,17,10,29.30
2009,07,21,17,11,29.40
2009,07,21,17,12,29.40
2009,07,21,17,13,29.50
2009,07,21,17,14,29.50
2009,07,21,17,15,29.60
2009,07,21,17,16,29.70
2009,07,21,17,17,29.70
2009,07,21,17,18,29.80
2009,07,21,17,19,29.90